| time (UTC) | temp F | wind direction | speed MPH | gust MPH | rain 1hr in | rain 24hr in | rain mn in | humidity % | barometer mb |
| 20260903014612 | 92 | 78 | 3.0 | 11.0 | 0.00 | 0.00 | 0.00 | 56 | 1008.8 |
| 20260903013102 | 92 | 63 | 3.0 | 7.0 | 0.00 | 0.00 | 0.00 | 56 | 1008.6 |
| 20260903011614 | 93 | 120 | 3.0 | 8.0 | 0.00 | 0.00 | 0.00 | 56 | 1008.4 |
| 20260903010105 | 93 | 105 | 3.0 | 9.0 | 0.00 | 0.00 | 0.00 | 55 | 1008.3 |
| 20260903004552 | 94 | 98 | 3.0 | 9.0 | 0.00 | 0.00 | 0.00 | 54 | 1008.4 |
| 20260903003106 | 95 | 127 | 4.0 | 10.0 | 0.00 | 0.00 | 0.00 | 53 | 1008.4 |
| 20260903001557 | 97 | 49 | 3.0 | 8.0 | 0.00 | 0.00 | 0.00 | 51 | 1008.2 |
| 20260903000050 | 98 | 81 | 1.0 | 6.0 | 0.00 | 0.00 | 0.00 | 46 | 1008.1 |
| 20260902234548 | 99 | 51 | 3.0 | 6.0 | 0.00 | 0.00 | 0.00 | 45 | 1008.0 |
| 20260902233048 | 99 | 91 | 2.0 | 8.0 | 0.00 | 0.00 | 0.00 | 45 | 1008.0 |
| 20260902231550 | 100 | 88 | 2.0 | 7.0 | 0.00 | 0.00 | 0.00 | 44 | 1007.9 |
| 20260902230054 | 100 | 71 | 1.0 | 6.0 | 0.00 | 0.00 | 0.00 | 46 | 1007.9 |
| 20260902224543 | 100 | 2 | 1.0 | 4.0 | 0.00 | 0.00 | 0.00 | 44 | 1008.0 |
| 20260902223043 | 100 | 33 | 1.0 | 6.0 | 0.00 | 0.00 | 0.00 | 45 | 1008.1 |
| 20260902221538 | 100 | 45 | 2.0 | 8.0 | 0.00 | 0.00 | 0.00 | 46 | 1008.2 |
| 20260902220037 | 100 | 319 | 1.0 | 5.0 | 0.00 | 0.00 | 0.00 | 46 | 1008.4 |
| 20260902214531 | 100 | 98 | 2.0 | 5.0 | 0.00 | 0.00 | 0.00 | 46 | 1008.5 |
| 20260902213026 | 100 | 51 | 1.0 | 5.0 | 0.00 | 0.00 | 0.00 | 46 | 1008.7 |
| 20260902211522 | 100 | 84 | 1.0 | 7.0 | 0.00 | 0.00 | 0.00 | 47 | 1008.8 |
| 20260902210019 | 99 | 107 | 3.0 | 7.0 | 0.00 | 0.00 | 0.00 | 47 | 1009.0 |
| 20260902204514 | 98 | 142 | 1.0 | 5.0 | 0.00 | 0.00 | 0.00 | 48 | 1009.2 |
| 20260902203011 | 99 | 1 | 1.0 | 5.0 | 0.00 | 0.00 | 0.00 | 47 | 1009.4 |
| 20260902201508 | 98 | 122 | 3.0 | 6.0 | 0.00 | 0.00 | 0.00 | 48 | 1009.7 |
| 20260902200008 | 98 | 1 | 2.0 | 7.0 | 0.00 | 0.00 | 0.00 | 49 | 1010.0 |
| 20260902194503 | 98 | 1 | 2.0 | 4.0 | 0.00 | 0.00 | 0.00 | 48 | 1010.2 |
| 20260902193059 | 97 | 359 | 1.0 | 6.0 | 0.00 | 0.00 | 0.00 | 51 | 1010.3 |
| 20260902191555 | 97 | 350 | 2.0 | 7.0 | 0.00 | 0.00 | 0.00 | 51 | 1010.8 |
| 20260902190051 | 97 | 65 | 3.0 | 7.0 | 0.00 | 0.00 | 0.00 | 51 | 1010.9 |
| 20260902184547 | 96 | 69 | 2.0 | 6.0 | 0.00 | 0.00 | 0.00 | 51 | 1011.1 |
| 20260902183044 | 96 | 359 | 1.0 | 7.0 | 0.00 | 0.00 | 0.00 | 53 | 1011.3 |
| 20260902181542 | 96 | 284 | 2.0 | 6.0 | 0.00 | 0.00 | 0.00 | 55 | 1011.5 |
| 20260902180039 | 96 | 58 | 1.0 | 5.0 | 0.00 | 0.00 | 0.00 | 56 | 1011.9 |
| 20260902174537 | 95 | 69 | 1.0 | 5.0 | 0.00 | 0.00 | 0.00 | 57 | 1012.1 |
| 20260902173036 | 95 | 89 | 1.0 | 5.0 | 0.00 | 0.00 | 0.00 | 57 | 1012.4 |
| 20260902171534 | 94 | 20 | 2.0 | 7.0 | 0.00 | 0.00 | 0.00 | 58 | 1012.5 |
| 20260902170032 | 94 | 359 | 1.0 | 5.0 | 0.00 | 0.00 | 0.00 | 58 | 1012.8 |
| 20260902164531 | 93 | 81 | 2.0 | 5.0 | 0.00 | 0.00 | 0.00 | 58 | 1012.9 |
| 20260902163027 | 92 | 82 | 0.0 | 7.0 | 0.00 | 0.00 | 0.00 | 59 | 1013.0 |
| 20260902161534 | 92 | 23 | 1.0 | 4.0 | 0.00 | 0.00 | 0.00 | 61 | 1013.1 |
| 20260902160023 | 91 | 103 | 2.0 | 4.0 | 0.00 | 0.00 | 0.00 | 62 | 1013.2 |
| 20260902154518 | 90 | 121 | 0.0 | 4.0 | 0.00 | 0.00 | 0.00 | 62 | 1013.2 |
| 20260902153014 | 89 | 79 | 0.0 | 4.0 | 0.00 | 0.00 | 0.00 | 64 | 1013.1 |
| 20260902151518 | 88 | 103 | 0.0 | 3.0 | 0.00 | 0.00 | 0.00 | 66 | 1013.1 |
| 20260902150011 | 86 | 82 | 1.0 | 4.0 | 0.00 | 0.00 | 0.00 | 69 | 1013.0 |
| 20260902144509 | 86 | 74 | 0.0 | 3.0 | 0.00 | 0.00 | 0.00 | 70 | 1013.1 |
| 20260902143007 | 85 | 167 | 0.0 | 2.0 | 0.00 | 0.00 | 0.00 | 71 | 1013.2 |
| 20260902141506 | 85 | 188 | 0.0 | 4.0 | 0.00 | 0.00 | 0.00 | 71 | 1013.1 |
| 20260902140011 | 84 | 124 | 0.0 | 5.0 | 0.00 | 0.00 | 0.00 | 73 | 1013.1 |
| 20260902134503 | 83 | 142 | 0.0 | 3.0 | 0.00 | 0.00 | 0.00 | 75 | 1013.1 |
| 20260902133002 | 82 | 114 | 0.0 | 4.0 | 0.00 | 0.00 | 0.00 | 76 | 1013.0 |
| 20260902131605 | 80 | 117 | 0.0 | 3.0 | 0.00 | 0.00 | 0.00 | 78 | 1012.9 |
| 20260902130057 | 80 | 118 | 0.0 | 0.0 | 0.00 | 0.00 | 0.00 | 78 | 1012.9 |
| 20260902124556 | 80 | 118 | 0.0 | 3.0 | 0.00 | 0.00 | 0.00 | 78 | 1012.7 |
| 20260902123055 | 79 | 117 | 0.0 | 2.0 | 0.00 | 0.00 | 0.00 | 78 | 1012.6 |
| 20260902121554 | 79 | 111 | 0.0 | 3.0 | 0.00 | 0.00 | 0.00 | 79 | 1012.3 |
| 20260902120053 | 79 | 111 | 0.0 | 0.0 | 0.00 | 0.00 | 0.00 | 78 | 1012.3 |
| 20260902114552 | 80 | 111 | 0.0 | 0.0 | 0.00 | 0.00 | 0.00 | 78 | 1012.2 |
| 20260902113052 | 80 | 111 | 0.0 | 2.0 | 0.00 | 0.00 | 0.00 | 77 | 1012.3 |
| 20260902111551 | 80 | 111 | 0.0 | 3.0 | 0.00 | 0.00 | 0.00 | 77 | 1012.4 |
| 20260902110048 | 80 | 111 | 0.0 | 2.0 | 0.00 | 0.00 | 0.00 | 77 | 1012.4 |
| 20260902104613 | 80 | 111 | 0.0 | 0.0 | 0.00 | 0.00 | 0.00 | 75 | 1012.3 |
| 20260902103046 | 80 | 111 | 0.0 | 0.0 | 0.00 | 0.00 | 0.00 | 75 | 1012.3 |
| 20260902101546 | 81 | 111 | 0.0 | 2.0 | 0.00 | 0.00 | 0.00 | 74 | 1012.3 |
| 20260902100106 | 81 | 111 | 0.0 | 1.0 | 0.00 | 0.00 | 0.00 | 74 | 1012.3 |
| 20260902094542 | 81 | 111 | 0.0 | 0.0 | 0.00 | 0.00 | 0.00 | 73 | 1012.3 |
| 20260902093040 | 82 | 111 | 0.0 | 1.0 | 0.00 | 0.00 | 0.00 | 72 | 1012.2 |
| 20260902091538 | 82 | 111 | 0.0 | 2.0 | 0.00 | 0.00 | 0.00 | 71 | 1012.2 |
| 20260902090036 | 83 | 113 | 0.0 | 3.0 | 0.00 | 0.00 | 0.00 | 70 | 1012.2 |
| 20260902084535 | 83 | 121 | 0.0 | 2.0 | 0.00 | 0.00 | 0.00 | 70 | 1012.2 |
| 20260902083033 | 83 | 158 | 0.0 | 2.0 | 0.00 | 0.00 | 0.00 | 70 | 1012.2 |
| 20260902081539 | 84 | 193 | 0.0 | 3.0 | 0.00 | 0.00 | 0.00 | 69 | 1012.3 |
| 20260902080030 | 84 | 111 | 0.0 | 3.0 | 0.00 | 0.00 | 0.00 | 68 | 1012.3 |
| 20260902074528 | 85 | 95 | 1.0 | 4.0 | 0.00 | 0.00 | 0.00 | 68 | 1012.3 |
| 20260902073027 | 85 | 155 | 1.0 | 6.0 | 0.00 | 0.00 | 0.00 | 68 | 1012.3 |
| 20260902071533 | 85 | 141 | 1.0 | 5.0 | 0.00 | 0.00 | 0.00 | 67 | 1012.3 |
| 20260902070024 | 86 | 165 | 0.0 | 4.0 | 0.00 | 0.00 | 0.00 | 67 | 1012.4 |
| 20260902064523 | 86 | 129 | 1.0 | 5.0 | 0.00 | 0.00 | 0.00 | 66 | 1012.3 |
| 20260902063023 | 86 | 96 | 2.0 | 6.0 | 0.00 | 0.00 | 0.00 | 66 | 1012.1 |
| 20260902061519 | 86 | 101 | 3.0 | 8.0 | 0.00 | 0.00 | 0.00 | 66 | 1012.1 |
| 20260902060017 | 86 | 150 | 2.0 | 6.0 | 0.00 | 0.00 | 0.00 | 66 | 1011.9 |
| 20260902054515 | 87 | 123 | 3.0 | 7.0 | 0.00 | 0.00 | 0.00 | 65 | 1011.7 |
| 20260902053015 | 87 | 146 | 0.0 | 4.0 | 0.00 | 0.00 | 0.00 | 63 | 1011.6 |
| 20260902051511 | 88 | 267 | 2.0 | 10.0 | 0.00 | 0.00 | 0.00 | 62 | 1011.6 |
| 20260902050009 | 89 | 125 | 2.0 | 9.0 | 0.00 | 0.00 | 0.00 | 60 | 1011.5 |
| 20260902044515 | 89 | 143 | 2.0 | 8.0 | 0.00 | 0.00 | 0.00 | 60 | 1011.6 |
| 20260902043006 | 89 | 102 | 0.0 | 0.0 | 0.00 | 0.00 | 0.00 | 60 | 1011.3 |
| 20260902041505 | 90 | 102 | 0.0 | 3.0 | 0.00 | 0.00 | 0.00 | 59 | 1011.2 |
| 20260902040005 | 90 | 101 | 0.0 | 3.0 | 0.00 | 0.00 | 0.00 | 58 | 1011.3 |
| 20260902034505 | 90 | 94 | 1.0 | 5.0 | 0.00 | 0.00 | 0.00 | 57 | 1011.2 |
| 20260902033004 | 90 | 109 | 0.0 | 2.0 | 0.00 | 0.00 | 0.00 | 57 | 1011.2 |
| 20260902031508 | 90 | 86 | 1.0 | 4.0 | 0.00 | 0.00 | 0.00 | 57 | 1011.1 |
| 20260902030003 | 90 | 109 | 0.0 | 2.0 | 0.00 | 0.00 | 0.00 | 57 | 1010.9 |
| 20260902024504 | 90 | 109 | 0.0 | 2.0 | 0.00 | 0.00 | 0.00 | 56 | 1010.7 |
| 20260902023002 | 91 | 109 | 0.0 | 2.0 | 0.00 | 0.00 | 0.00 | 55 | 1010.4 |
| 20260902021502 | 91 | 107 | 0.0 | 2.0 | 0.00 | 0.00 | 0.00 | 55 | 1010.2 |
| 20260902020001 | 92 | 107 | 0.0 | 2.0 | 0.00 | 0.00 | 0.00 | 54 | 1010.1 |